Aurora, NE

2:04 AM CDT on May 01, 2017 (GMT -0500)
Aurora Municipal

Weather History for KAUH - November, 2012

Change the Weather History Date:

Thursday, November 15, 2012

  Actual Average Record
Temperature  
Mean Temperature 42 °F -  
Max Temperature 57 °F 49 °F 75 °F (2001)
Min Temperature 28 °F 27 °F 8 °F (2000)
Degree Days  
Heating Degree Days 22    
Moisture  
Dew Point 27 °F    
Average Humidity 54    
Maximum Humidity 82    
Minimum Humidity 27    
Precipitation  
Precipitation 0.00 in - - ()
Sea Level Pressure  
Sea Level Pressure 30.30 in    
Wind  
Wind Speed 8 mph (North)    
Max Wind Speed 16 mph    
Max Gust Speed 17 mph    
Visibility 10 miles    
Events Rain    
Averages and records for this station are not official NWS values.
T = Trace of Precipitation, MM = Missing Value Source: NWS Daily Summary

Daily Weather History Graph

Daily Weather History Graph

Search for Another Location

Airport or City:

Trip Planner

Search our weather history database for the weather conditions in past years. The results will help you decide how hot, cold, wet, or windy it might be!

Date:

Astronomy

Nov. 15, 2012 Rise Set
Actual Time 7:19 AM CST 5:13 PM CST
Civil Twilight 6:50 AM CST 5:42 PM CST
Nautical Twilight 6:17 AM CST 6:15 PM CST
Astronomical Twilight 5:44 AM CST 6:48 PM CST
Moon 9:17 AM CST (11/15) 7:05 PM CST (11/15)
Length of Visible Light 10h 52m
Length of Day
9h 53m
Waxing Crescent, 5% of the Moon is Illuminated
Nov 15
Waxing Crescent
Nov 20
First Quarter
Nov 28
Full
Dec 6
Last Quarter
Dec 13
New

Hourly Weather History & Observations

Time (CST) Temp. Windchill Dew Point Humidity Pressure Visibility Wind Dir Wind Speed Gust Speed Precip Events Conditions
12:15 AM 45.7 °F 39.1 °F 25.7 °F 46% 30.15 in 10.0 mi SSW 15.0 mph - N/A   Overcast
12:35 AM 45.5 °F - 26.2 °F 47% 30.16 in 10.0 mi Calm Calm - N/A   Overcast
12:55 AM 43.2 °F 39.7 °F 27.1 °F 53% 30.18 in 10.0 mi WNW 5.8 mph - N/A   Mostly Cloudy
1:15 AM 42.1 °F 40.2 °F 28.2 °F 58% 30.17 in 10.0 mi West 3.5 mph - N/A   Overcast
1:35 AM 41.7 °F 38.0 °F 28.6 °F 60% 30.17 in 10.0 mi SW 5.8 mph - N/A   Overcast
1:55 AM 41.4 °F 39.4 °F 28.6 °F 60% 30.17 in 10.0 mi SSW 3.5 mph - N/A   Mostly Cloudy
2:15 AM 41.9 °F 37.5 °F 28.4 °F 59% 30.18 in 10.0 mi WSW 6.9 mph - N/A   Scattered Clouds
2:55 AM 40.5 °F - 28.0 °F 61% 30.17 in 10.0 mi Calm Calm - N/A   Clear
3:15 AM 39.7 °F 36.5 °F 27.7 °F 62% 30.17 in 10.0 mi SW 4.6 mph - N/A   Clear
3:35 AM 39.4 °F 35.2 °F 28.4 °F 65% 30.17 in 10.0 mi WSW 5.8 mph - N/A   Clear
3:55 AM 39.2 °F 37.0 °F 28.4 °F 65% 30.17 in 10.0 mi SW 3.5 mph - N/A   Mostly Cloudy
4:15 AM 39.9 °F 36.7 °F 28.0 °F 63% 30.17 in 10.0 mi SW 4.6 mph - N/A   Overcast
4:35 AM 38.5 °F 36.1 °F 28.4 °F 67% 30.17 in 10.0 mi West 3.5 mph - N/A   Overcast
4:55 AM 38.7 °F 36.3 °F 28.4 °F 67% 30.18 in 10.0 mi West 3.5 mph - N/A   Overcast
5:15 AM 38.5 °F 36.1 °F 28.6 °F 68% 30.18 in 10.0 mi WNW 3.5 mph - N/A   Overcast
5:35 AM 38.7 °F 35.2 °F 29.3 °F 69% 30.19 in 10.0 mi West 4.6 mph - N/A   Mostly Cloudy
5:55 AM 39.4 °F 35.2 °F 29.3 °F 67% 30.19 in 10.0 mi West 5.8 mph - N/A   Overcast
6:15 AM 40.1 °F 36.1 °F 29.7 °F 66% 30.20 in 10.0 mi West 5.8 mph - N/A   Overcast
6:35 AM 40.8 °F 36.2 °F 29.8 °F 65% 30.21 in 10.0 mi WNW 6.9 mph - N/A Rain Light Rain
6:55 AM 41.4 °F 36.2 °F 30.6 °F 65% 30.22 in 10.0 mi NW 8.1 mph - N/A   Light Drizzle
7:15 AM 41.4 °F 37.6 °F 30.2 °F 65% 30.22 in 10.0 mi NW 5.8 mph - N/A   Overcast
7:35 AM 42.1 °F 36.6 °F 29.7 °F 61% 30.24 in 10.0 mi North 9.2 mph - N/A   Overcast
7:55 AM 43.7 °F 36.6 °F 28.2 °F 54% 30.25 in 10.0 mi North 15.0 mph - N/A   Overcast
8:15 AM 43.2 °F 37.4 °F 28.9 °F 57% 30.26 in 10.0 mi NNW 10.4 mph - N/A   Overcast
8:35 AM 43.2 °F 37.0 °F 28.4 °F 56% 30.28 in 10.0 mi North 11.5 mph - N/A   Overcast
8:55 AM 44.2 °F 39.2 °F 28.9 °F 55% 30.28 in 10.0 mi North 9.2 mph - N/A   Overcast
9:15 AM 45.1 °F 39.9 °F 28.8 °F 53% 30.29 in 10.0 mi North 10.4 mph - N/A   Mostly Cloudy
9:35 AM 45.1 °F 39.9 °F 29.3 °F 54% 30.30 in 10.0 mi North 10.4 mph - N/A   Scattered Clouds
9:55 AM 46.6 °F - 30.4 °F 53% 30.30 in 10.0 mi North 8.1 mph - N/A   Scattered Clouds
10:15 AM 49.5 °F - 29.7 °F 47% 30.31 in 10.0 mi North 9.2 mph - N/A   Scattered Clouds
10:35 AM 50.7 °F - 28.6 °F 42% 30.32 in 10.0 mi NNE 15.0 mph - N/A   Clear
10:55 AM 52.0 °F - 27.3 °F 39% 30.33 in 10.0 mi NNE 15.0 mph - N/A   Clear
11:15 AM 52.3 °F - 28.0 °F 39% 30.33 in 10.0 mi NE 10.4 mph - N/A   Clear
11:35 AM 53.6 °F - 28.0 °F 37% 30.34 in 10.0 mi North 11.5 mph - N/A   Clear
11:55 AM 54.5 °F - 27.5 °F 35% 30.33 in 10.0 mi NNE 11.5 mph - N/A   Clear
12:15 PM 54.9 °F - 27.5 °F 35% 30.33 in 10.0 mi NNE 15.0 mph - N/A   Clear
12:35 PM 55.4 °F - 28.0 °F 35% 30.32 in 10.0 mi NNE 12.7 mph - N/A   Clear
12:55 PM 55.9 °F - 27.0 °F 33% 30.32 in 10.0 mi North 16.1 mph - N/A   Clear
1:15 PM 56.8 °F - 26.6 °F 31% 30.32 in 10.0 mi NNE 11.5 mph - N/A   Clear
1:35 PM 57.2 °F - 26.6 °F 31% 30.32 in 10.0 mi NNE 12.7 mph - N/A   Clear
1:55 PM 57.4 °F - 26.4 °F 31% 30.31 in 10.0 mi NNE 10.4 mph 16.1 mph N/A   Clear
2:15 PM 57.7 °F - 26.1 °F 30% 30.31 in 10.0 mi NNE 13.8 mph - N/A   Clear
2:35 PM 57.9 °F - 24.3 °F 27% 30.31 in 10.0 mi NNE 13.8 mph - N/A   Clear
2:55 PM 57.6 °F - 23.7 °F 27% 30.31 in 10.0 mi North 12.7 mph 17.3 mph N/A   Clear
3:15 PM 57.2 °F - 23.7 °F 28% 30.32 in 10.0 mi NNE 11.5 mph - N/A   Clear
3:35 PM 56.8 °F - 23.2 °F 27% 30.32 in 10.0 mi NNE 13.8 mph - N/A   Clear
3:55 PM 56.3 °F - 23.0 °F 28% 30.33 in 10.0 mi North 11.5 mph - N/A   Clear
4:15 PM 55.4 °F - 23.4 °F 29% 30.34 in 10.0 mi NNE 9.2 mph - N/A   Clear
4:35 PM 53.4 °F - 24.4 °F 33% 30.34 in 10.0 mi North 10.4 mph - N/A   Clear
4:55 PM 50.4 °F - 25.7 °F 38% 30.35 in 7.0 mi NNE 8.1 mph - N/A   Clear
5:15 PM 46.4 °F 42.9 °F 26.2 °F 45% 30.35 in 10.0 mi NNE 6.9 mph - N/A   Clear
5:35 PM 45.1 °F 40.8 °F 25.2 °F 46% 30.36 in 10.0 mi NNE 8.1 mph - N/A   Clear
5:55 PM 42.1 °F 36.6 °F 25.3 °F 52% 30.37 in 10.0 mi NNE 9.2 mph - N/A   Clear
6:15 PM 40.8 °F 35.6 °F 25.0 °F 53% 30.37 in 10.0 mi NNE 8.1 mph - N/A   Clear
6:35 PM 40.5 °F 35.1 °F 24.8 °F 54% 30.38 in 10.0 mi NNE 8.1 mph - N/A   Clear
6:55 PM 39.7 °F 34.3 °F 25.5 °F 57% 30.39 in 10.0 mi NNE 8.1 mph - N/A   Clear
7:15 PM 37.4 °F 32.1 °F 24.8 °F 60% 30.40 in 10.0 mi NNE 6.9 mph - N/A   Clear
7:35 PM 36.0 °F 29.6 °F 25.5 °F 66% 30.40 in 10.0 mi North 8.1 mph - N/A   Clear
7:55 PM 35.1 °F 27.4 °F 25.5 °F 68% 30.40 in 10.0 mi NNE 10.4 mph - N/A   Clear
8:15 PM 35.8 °F 28.8 °F 26.1 °F 68% 30.41 in 10.0 mi NNE 9.2 mph - N/A   Clear
8:35 PM 35.4 °F 29.7 °F 26.4 °F 70% 30.41 in 10.0 mi NE 6.9 mph - N/A   Clear
8:55 PM 33.8 °F 29.6 °F 25.5 °F 72% 30.42 in 10.0 mi NE 4.6 mph - N/A   Clear
9:15 PM 32.5 °F 25.5 °F 25.0 °F 74% 30.42 in 10.0 mi NNE 8.1 mph - N/A   Clear
9:35 PM 32.2 °F 24.4 °F 25.2 °F 75% 30.43 in 10.0 mi NNE 9.2 mph - N/A   Clear
9:55 PM 31.8 °F 25.4 °F 25.0 °F 76% 30.42 in 10.0 mi NNE 6.9 mph - N/A   Clear
10:15 PM 32.0 °F 26.4 °F 25.0 °F 75% 30.42 in 10.0 mi NNE 5.8 mph - N/A   Clear
10:35 PM 30.6 °F 25.8 °F 24.6 °F 79% 30.43 in 10.0 mi North 4.6 mph - N/A   Clear
10:55 PM 31.6 °F 26.0 °F 25.3 °F 78% 30.43 in 10.0 mi North 5.8 mph - N/A   Clear
11:15 PM 30.7 °F 24.9 °F 24.6 °F 78% 30.44 in 10.0 mi North 5.8 mph - N/A   Clear
11:35 PM 28.6 °F - 21.9 °F 76% 30.44 in 10.0 mi Calm Calm - N/A   Clear
11:55 PM 28.2 °F 24.4 °F 23.4 °F 82% 30.44 in 10.0 mi NNW 3.5 mph - N/A   Clear